Temp
27 27 26 24 22 20 21 23 22 23 22 21 20 21 20 17 20 19 16 16 16 15 15 15 15 16 15 14 15 15 15 15 15 15 15 15 14 15 15 15 15 14 14 14 13 13 13 13 13
27 27 26 19 21 21 21 22 23 22 21 16 18 18 18 18 16 13 14 15 16 15 15 15 15 15 15 15 14 15 15 15 15 15 15 14 14 14 14 14 14 14 14 13 13 13 13 13 13
26 26 21 20 19 21 22 22 21 22 18 21 20 18 17 17 16 14 16 16 15 15 15 15 15 15 14 14 14 14 15 14 14 14 14 14 14 14 14 13 13 13 13 13 13 13 13 13 13
26 23 19 21 23 24 23 22 21 21 22 20 18 19 18 18 16 17 17 16 15 15 15 14 15 14 14 14 14 14 14 14 14 13 13 13 13 13 13 13 13 13 12 13 12 13 13 12 12
24 19 20 22 23 24 22 21 20 22 22 21 20 19 18 17 18 18 16 16 15 15 15 14 14 14 14 14 13 13 14 13 13 12 12 12 12 12 12 13 12 12 12 12 12 12 12 12 12
20 19 20 21 23 24 23 21 21 22 21 18 17 16 16 17 18 16 16 16 16 16 15 14 14 14 14 13 13 13 13 13 13 12 12 12 12 12 12 12 12 12 12 12 12 12 12 12 12
21 19 21 22 23 24 24 20 21 21 21 21 17 17 16 16 17 17 17 16 16 16 15 14 14 14 14 13 13 13 13 13 12 12 12 11 11 11 11 11 12 11 11 11 11 11 11 12 12
18 19 22 22 22 23 23 22 22 22 22 19 18 18 17 16 16 16 16 16 16 16 16 15 14 14 13 13 13 13 12 12 12 12 12 11 12 12 11 11 12 11 11 11 11 11 11 11 12
20 19 20 23 22 23 22 23 23 22 21 21 19 16 18 18 16 15 14 15 15 15 15 15 15 14 14 13 13 13 12 12 12 12 12 12 12 12 12 12 11 12 12 11 11 11 11 11 12
20 19 22 23 23 23 23 24 22 23 21 21 20 17 17 17 15 14 13 13 14 14 15 15 15 14 14 14 13 13 13 12 12 12 12 12 12 13 13 13 12 11 12 12 12 12 12 12 12
21 21 23 24 24 24 24 24 22 20 20 19 19 17 14 15 14 14 14 14 15 15 15 15 15 15 14 14 13 13 13 13 13 13 13 13 13 13 13 13 13 13 12 13 13 13 12 13 13
24 23 24 24 24 24 23 23 22 19 22 21 19 16 15 14 14 14 14 15 15 15 16 16 15 15 14 14 14 14 13 13 13 13 13 13 13 13 13 13 13 13 13 13 13 13 13 13 13
24 24 24 23 23 23 23 22 21 20 20 19 16 15 15 15 15 16 16 16 16 16 16 16 16 15 15 14 14 14 14 14 14 14 14 13 13 13 13 13 13 13 13 13 13 13 13 13 13
23 24 23 22 23 23 22 22 22 21 19 17 16 15 14 15 15 15 15 16 16 17 17 17 16 16 15 15 15 14 14 15 14 14 14 14 14 13 13 14 14 13 13 13 13 13 13 13 13
23 23 21 22 22 22 21 20 19 19 18 17 15 14 14 14 15 15 17 17 18 17 17 17 17 17 16 15 15 15 15 15 14 14 14 14 14 14 14 14 14 14 13 13 13 13 13 13 12
22 20 20 22 20 22 21 19 20 19 17 17 14 13 13 14 15 16 17 18 18 18 18 18 17 17 16 16 16 15 15 15 15 15 14 14 14 14 14 14 14 14 13 13 13 13 13 13 13
18 20 20 20 19 20 20 19 20 18 16 17 14 13 13 14 14 16 17 18 19 19 19 18 18 17 17 16 16 16 15 15 15 15 15 15 14 14 14 14 14 14 13 13 13 13 13 13 13
21 21 20 19 22 20 19 18 19 18 18 17 15 14 13 14 15 17 18 19 19 19 19 19 19 18 18 17 16 15 15 15 15 15 15 15 15 15 14 14 14 14 14 14 13 13 13 13 13
21 21 20 20 21 20 18 18 20 20 17 16 15 14 14 15 17 18 19 19 19 19 19 19 19 18 17 16 16 15 15 15 15 15 15 15 15 15 15 15 15 14 14 14 14 13 12 13 13
21 21 19 19 21 20 18 18 20 20 18 18 19 16 16 15 14 15 18 19 19 19 19 19 19 19 18 17 17 16 16 16 16 16 16 16 16 16 15 15 15 15 14 14 14 13 13 12 12
21 21 20 20 19 19 17 17 19 20 18 17 17 20 18 18 17 15 15 18 19 19 19 19 20 20 19 18 17 16 16 16 16 16 16 17 17 17 16 16 15 15 15 15 14 13 13 12 12
21 21 21 21 19 19 18 18 18 20 19 17 16 15 18 16 16 16 15 16 18 20 20 20 20 20 20 19 18 17 17 16 17 18 18 18 17 17 17 16 16 16 15 15 15 14 13 12 12
20 21 20 20 18 18 18 17 18 19 21 20 17 16 17 17 17 17 15 18 20 20 21 21 21 20 20 19 18 18 17 17 18 18 18 18 18 17 17 17 16 16 16 16 15 14 14 13 12
20 21 17 15 15 17 17 18 19 21 22 24 21 16 17 15 15 16 18 19 19 20 21 21 20 20 20 19 19 18 18 18 17 18 17 18 18 18 17 17 17 16 16 16 15 15 14 13 12
18 17 16 19 17 18 19 18 20 21 21 21 23 20 16 16 15 15 15 15 17 18 20 20 19 19 20 19 19 19 19 19 18 19 18 18 18 19 18 17 17 16 16 16 15 15 14 14 13
18 17 16 21 18 18 18 18 22 21 20 19 19 18 18 16 15 15 15 16 17 18 19 19 19 19 20 20 20 19 19 19 19 19 19 19 19 19 18 17 17 17 16 16 15 15 15 14 13
18 17 18 18 16 16 17 18 21 22 21 21 20 20 19 17 15 15 14 16 17 18 19 20 20 20 20 20 20 20 19 19 19 19 19 19 19 19 18 18 17 17 16 16 15 15 15 14 14
19 18 18 15 19 19 17 17 21 22 22 20 20 20 18 17 16 15 14 16 18 19 20 21 21 21 21 21 20 20 20 20 19 19 19 19 19 19 19 18 18 17 17 16 16 15 15 14 14
17 17 16 15 14 17 16 19 18 22 20 18 18 18 18 18 16 16 15 17 19 19 20 20 20 20 20 21 21 20 20 20 20 19 19 20 19 19 19 19 18 18 17 16 16 16 15 15 14
17 17 16 15 18 13 13 16 19 20 19 19 18 17 18 19 17 16 15 16 17 18 19 19 20 20 21 22 21 21 20 20 20 20 20 20 20 19 19 19 19 18 17 17 16 16 15 15 14
Height
797 795 793 793 823 833 841 832 824 825 826 820 820 822 827 832 830 844 834 836 838 841 845 847 849 851 852 854 853 853 853 853 853 853 852 851 851 851 850 849 847 846 846 844 843 842 841 839 839
796 795 794 805 836 848 845 825 826 822 822 825 823 828 830 834 831 834 836 836 839 842 845 847 849 851 853 854 854 854 855 855 855 854 853 853 853 852 851 850 850 850 849 847 846 844 842 842 841
796 795 804 823 842 845 841 824 825 820 824 820 825 827 830 832 831 831 833 836 840 842 845 847 850 852 853 854 855 855 856 856 855 855 855 855 854 854 853 852 852 851 850 848 847 846 846 844 843
796 797 809 829 831 821 821 820 820 822 820 820 824 831 828 827 827 830 832 836 840 842 845 848 850 851 853 854 855 856 856 856 856 856 856 855 855 855 854 853 853 852 851 850 849 849 847 846 845
797 807 831 832 827 819 816 816 820 822 821 822 823 832 830 828 828 830 833 836 839 842 845 848 850 851 852 853 854 855 856 856 857 856 856 856 856 855 855 854 854 853 852 852 851 850 848 847 847
810 814 839 840 828 817 814 814 817 820 821 825 828 833 832 828 828 830 833 836 839 841 844 847 849 851 852 853 854 855 856 857 857 856 856 856 856 856 856 856 855 854 854 853 852 851 850 849 849
813 826 835 830 828 822 814 814 818 820 821 820 821 833 830 827 828 830 834 837 839 842 843 846 848 850 851 853 854 855 856 857 857 857 857 856 857 857 857 856 856 855 855 854 853 852 851 850 849
811 821 827 827 832 825 810 811 809 814 818 815 816 829 829 822 826 831 835 837 839 841 843 845 847 849 851 852 854 855 856 856 857 857 857 857 858 858 858 857 856 856 855 855 854 852 851 850 850
805 833 838 824 827 817 809 811 809 808 813 813 814 816 815 818 826 831 834 836 839 840 842 844 847 849 850 851 853 854 855 856 856 857 858 858 858 858 857 857 857 856 855 855 854 853 852 852 850
816 835 825 811 811 813 809 808 811 812 815 814 814 814 814 818 824 828 831 833 836 838 841 843 845 847 850 851 852 853 854 855 855 856 857 857 857 857 857 857 856 856 855 854 853 852 852 850 849
814 825 812 807 804 804 807 807 808 815 821 811 811 812 815 818 822 825 828 829 831 835 839 841 844 846 848 850 851 852 853 854 855 855 856 857 856 856 856 856 855 855 855 854 852 852 851 850 848
815 807 806 804 803 803 808 804 807 811 803 796 798 804 811 816 818 820 823 826 829 832 835 838 841 843 846 848 849 850 852 853 854 854 855 855 854 854 854 854 854 853 853 853 852 851 850 849 847
811 808 804 803 803 803 803 807 808 804 797 797 799 805 808 812 814 816 819 823 826 829 832 835 838 841 843 845 847 849 850 851 852 853 853 853 853 853 853 853 853 853 852 852 851 851 849 847 846
808 807 807 805 805 804 807 807 804 795 793 799 801 802 805 807 808 813 817 819 822 826 828 832 834 837 840 842 844 846 848 849 850 850 851 851 852 852 852 852 852 852 852 852 851 850 848 847 845
807 815 813 807 805 807 806 813 807 793 794 799 802 802 802 802 806 807 808 813 816 820 825 827 831 834 836 839 841 843 845 846 847 848 849 850 850 851 851 851 851 851 852 851 850 849 847 845 844
817 823 832 809 809 805 809 822 794 790 795 797 801 802 801 799 799 801 805 808 812 817 820 824 827 829 832 835 838 840 842 843 844 846 847 847 848 849 849 849 849 850 850 849 848 847 845 844 842
834 837 833 823 810 809 813 816 794 790 795 795 797 798 798 796 796 797 801 804 807 811 815 819 822 825 828 832 835 837 839 840 842 843 844 845 846 847 847 847 847 848 847 847 846 845 843 841 840
834 834 829 832 810 812 816 811 795 791 792 793 793 793 793 791 787 789 794 798 802 806 809 813 817 820 825 829 833 835 836 837 838 839 840 842 843 844 844 844 844 845 845 844 844 843 842 840 838
823 826 830 822 809 813 816 810 790 782 789 789 789 789 788 783 779 784 787 792 796 801 804 807 811 815 820 824 828 831 831 833 834 835 837 838 839 841 841 841 842 842 842 842 841 840 840 839 838
821 826 832 820 807 813 812 803 783 775 775 771 773 777 777 778 778 778 781 785 789 793 797 801 805 809 814 818 822 826 827 828 830 832 833 834 836 837 838 838 838 839 839 839 839 838 838 837 837
822 826 825 825 818 813 817 803 781 763 764 765 762 757 763 765 768 771 775 777 781 785 789 794 798 803 808 813 818 822 824 825 825 826 828 830 832 833 834 834 835 835 835 835 836 836 836 835 835
828 816 816 819 829 838 818 834 791 767 765 763 760 760 755 757 759 762 766 770 773 777 783 788 793 798 803 808 812 815 817 818 819 823 825 827 828 828 829 830 830 831 831 831 831 832 833 833 832
826 815 819 820 830 833 828 838 791 771 760 752 750 749 747 748 750 754 757 760 764 771 776 782 788 792 797 802 806 810 812 814 817 819 820 822 823 824 825 825 826 826 826 826 826 827 828 828 829
816 818 830 838 842 849 828 830 794 772 754 740 737 742 741 744 746 747 749 755 759 765 770 776 782 786 792 796 800 804 806 809 812 813 814 817 818 819 820 821 821 821 821 821 822 823 823 824 824
824 839 856 844 848 845 819 829 787 758 748 742 733 733 735 737 740 743 747 751 755 759 764 770 776 780 786 790 794 797 800 804 805 807 809 811 813 814 815 816 816 816 816 816 817 817 817 818 818
828 835 858 840 848 838 823 820 772 744 739 736 733 731 729 733 735 738 740 744 748 753 758 764 769 775 780 784 787 791 795 797 799 802 804 806 808 809 811 811 811 811 812 812 812 812 813 813 814
828 839 830 837 845 852 825 795 757 741 739 735 731 729 729 729 731 734 736 739 743 747 752 757 763 769 773 777 782 784 788 791 792 796 799 801 803 805 806 806 806 807 807 808 808 808 809 809 809
817 822 840 851 845 842 827 814 786 756 748 740 735 732 731 730 729 731 733 736 739 742 747 753 758 761 766 771 774 778 781 784 788 792 794 796 798 800 800 801 802 803 804 804 804 804 805 805 805
828 829 835 844 852 847 847 807 766 753 751 750 741 735 731 730 732 729 730 732 735 739 743 747 752 756 760 764 768 771 774 778 783 786 788 791 793 795 796 797 798 798 799 800 800 801 801 801 801
814 819 825 845 835 850 849 811 753 750 749 745 743 737 732 728 729 731 733 733 733 736 740 742 746 749 752 757 761 765 769 773 776 779 781 785 787 790 791 792 793 794 795 796 797 797 797 797 797
Wind_Speed
18 18 7 4 4 5 1 2 1 2 0 1 2 4 5 3 2 3 5 10 22 22 17 16 13 11 9 9 8 7 7 7 7 7 7 7 9 8 9 10 11 12 12 13 14 14 13 12 13
16 11 3 2 4 3 4 2 3 2 4 7 6 3 4 1 2 5 16 15 22 21 20 16 13 12 11 10 7 8 7 7 6 7 7 7 7 8 8 9 10 10 10 12 13 14 14 12 13
10 5 3 4 3 3 4 3 4 1 7 3 3 4 4 3 1 17 5 23 23 22 19 17 14 13 12 10 9 8 7 7 6 6 5 5 6 7 8 8 8 9 10 11 12 14 13 12 12
4 5 4 4 3 3 4 4 5 4 1 3 3 4 2 2 9 10 19 25 25 22 19 16 14 13 12 11 10 9 7 7 6 4 4 5 4 5 6 6 7 8 9 10 10 12 12 11 10
4 3 3 2 2 2 2 4 7 4 4 3 3 3 1 1 7 14 28 26 24 21 18 16 13 13 12 11 10 8 8 6 5 4 4 3 3 4 4 5 6 7 8 8 9 10 11 10 9
4 3 4 2 2 1 1 5 6 4 3 3 5 6 4 2 11 24 28 26 22 20 18 15 14 13 12 11 10 9 7 7 5 4 3 2 2 2 3 3 4 6 6 7 7 7 9 10 9
5 3 3 2 3 1 4 7 4 6 5 5 9 5 3 4 18 30 27 25 23 19 17 15 15 13 12 11 10 9 8 7 6 6 4 3 2 2 1 2 4 4 5 5 6 6 6 7 8
4 4 1 2 4 5 5 5 6 7 5 3 5 4 4 8 25 29 28 26 24 21 17 15 14 16 15 13 11 10 9 9 8 7 6 5 2 2 2 3 5 5 5 5 5 6 6 7 7
3 4 0 2 4 5 5 4 2 1 7 2 5 6 2 26 28 28 27 28 27 24 21 17 15 18 14 14 13 11 11 10 9 8 7 6 6 5 3 3 4 5 6 5 5 6 6 7 6
4 3 5 4 3 4 4 3 7 4 2 3 2 1 8 33 31 27 24 25 29 28 26 22 17 18 17 16 14 14 12 12 12 11 9 9 6 5 6 4 3 5 5 5 5 5 6 6 7
3 4 4 3 2 4 4 2 5 7 4 7 9 6 12 19 24 24 26 32 35 31 28 26 22 20 19 19 16 15 12 10 10 10 9 8 8 7 6 6 6 5 6 6 6 6 7 7 8
1 3 4 2 1 2 3 3 4 8 8 6 10 13 16 14 21 24 26 32 34 33 31 27 25 24 22 19 19 16 14 12 11 9 9 9 9 9 9 8 7 7 7 7 8 8 9 9 10
1 2 2 1 2 3 0 6 7 8 11 3 9 12 15 16 23 27 32 34 35 35 33 30 28 27 25 24 21 19 17 14 10 10 9 10 9 9 10 10 10 8 9 9 9 10 11 11 13
2 2 3 3 3 3 4 4 1 7 5 6 9 13 13 15 25 22 26 32 36 35 34 30 30 29 27 27 24 21 18 15 14 14 11 11 10 10 10 10 10 9 10 10 11 12 12 14 15
2 5 6 4 3 4 3 7 11 6 4 8 10 9 10 15 19 27 36 35 38 38 35 33 31 30 30 29 26 23 20 18 18 16 14 14 13 12 12 11 11 10 11 11 12 13 14 16 16
3 4 3 4 5 1 4 10 9 3 9 11 10 9 9 13 21 31 33 36 36 37 37 34 32 30 30 29 26 25 21 20 18 17 17 17 15 15 14 14 13 11 12 13 13 14 15 17 18
5 2 3 8 7 3 4 9 6 3 7 9 10 10 10 11 13 27 33 34 37 37 37 37 36 34 31 29 27 24 22 22 20 19 19 18 17 16 17 16 14 13 14 14 14 15 16 19 20
2 3 4 5 3 3 4 16 13 8 5 11 10 10 11 12 17 28 34 35 35 36 37 36 36 37 33 30 27 25 24 24 23 23 21 19 18 17 17 17 16 15 16 16 15 16 17 19 21
3 3 5 5 4 5 8 12 19 14 6 10 10 10 12 15 18 25 32 35 36 35 37 38 38 39 36 33 30 27 28 26 26 24 22 21 19 18 18 18 17 16 18 17 17 18 17 19 18
2 3 6 6 3 4 8 15 18 13 10 12 16 14 15 9 8 13 28 31 36 38 38 38 40 39 38 36 32 29 25 25 26 22 22 21 19 18 18 19 18 17 19 19 18 18 17 16 13
2 4 3 5 6 3 7 10 6 5 6 6 11 12 13 17 15 10 17 30 35 38 39 40 40 40 40 38 34 29 26 20 18 21 23 21 19 18 19 19 19 19 19 20 19 18 18 18 15
4 2 2 4 5 3 5 6 8 6 8 7 11 11 14 13 9 9 13 24 34 39 38 40 39 40 39 38 36 34 32 30 27 21 17 14 14 15 16 18 19 20 20 21 20 18 18 18 19
6 2 2 1 1 3 3 1 9 3 7 10 12 15 16 13 14 14 12 26 36 37 38 40 39 39 39 38 37 35 33 31 26 21 19 17 16 17 17 17 17 19 19 19 19 19 18 18 19
2 1 5 4 2 2 4 4 7 4 6 5 4 9 12 10 11 10 20 26 30 35 37 39 39 39 38 37 38 37 35 31 28 26 24 21 19 18 17 17 17 17 18 18 17 17 18 18 19
5 6 4 4 3 6 2 1 11 12 9 6 7 9 11 10 10 10 10 14 24 33 37 38 39 39 38 38 37 38 36 33 31 28 25 22 20 18 15 15 15 16 15 14 15 16 17 17 18
3 6 5 4 2 5 2 7 7 6 8 9 9 10 6 9 8 10 11 18 25 32 37 38 39 40 38 38 39 38 37 35 33 30 26 24 21 18 15 14 14 12 12 11 11 13 14 16 17
3 3 3 1 1 2 5 8 11 4 9 9 8 5 8 9 9 10 9 19 25 29 36 40 40 40 39 38 38 38 37 36 35 31 27 25 22 19 15 13 11 10 10 10 10 11 11 12 13
3 5 3 3 3 5 6 6 7 9 11 12 11 8 8 7 7 8 8 18 26 32 36 37 40 42 41 39 39 39 37 36 34 31 29 26 21 18 15 12 10 9 9 9 10 10 9 11 11
2 1 3 3 4 3 3 7 7 4 7 11 12 10 8 6 7 7 8 19 27 30 33 36 39 40 39 40 40 39 39 36 34 33 30 27 22 19 16 13 11 10 10 9 10 10 10 11 11
4 8 7 5 5 3 3 8 5 5 4 4 10 9 7 4 4 5 6 10 17 26 30 35 38 40 42 40 39 39 38 35 34 34 31 28 25 21 17 14 13 12 11 11 11 11 11 12 12
Wind_Direction
331 339 339 41 52 64 312 256 259 173 135 332 20 120 139 48 124 198 152 155 165 163 159 159 157 155 156 156 131 130 117 112 106 98 84 72 69 74 58 59 53 51 48 45 43 43 48 55 55
331 341 35 80 83 70 274 248 221 219 149 126 99 91 46 100 108 113 138 163 165 160 161 166 159 158 154 160 150 142 136 126 115 97 91 83 76 67 63 59 58 55 51 49 47 45 48 58 61
331 356 78 90 110 169 209 195 186 178 160 152 93 63 154 178 107 161 200 163 164 162 167 159 163 162 162 159 159 152 149 140 120 112 106 91 80 68 66 63 57 51 49 45 44 45 49 60 58
340 16 34 85 206 224 204 177 176 147 112 74 118 77 344 211 167 174 160 165 167 166 166 162 164 166 168 166 165 161 147 147 137 135 112 97 83 72 62 58 55 48 47 48 47 48 50 62 63
43 56 60 91 269 276 238 169 159 166 164 140 160 188 271 74 164 169 163 169 169 166 167 167 170 169 172 170 174 167 172 156 162 153 132 117 92 68 63 55 46 42 43 45 47 47 48 54 57
41 92 62 203 247 271 248 169 149 171 165 151 88 134 218 205 164 168 168 173 176 169 171 175 175 176 178 178 179 181 173 183 169 159 153 158 148 100 68 44 34 33 31 34 36 42 45 49 46
113 84 193 221 207 199 222 148 165 175 163 222 153 136 267 196 183 172 176 179 180 179 181 185 182 183 184 185 187 191 193 188 193 194 191 193 184 181 179 34 15 12 21 25 27 27 30 34 32
105 92 88 268 197 232 177 171 158 158 206 80 143 188 232 199 172 176 180 183 186 187 191 192 189 191 190 191 195 200 202 205 206 207 213 210 207 225 268 324 3 357 3 12 18 17 23 17 9
113 63 229 255 155 244 167 150 183 58 129 174 185 156 233 162 167 172 177 185 188 191 194 195 195 198 202 199 197 207 211 214 216 217 220 220 239 258 266 323 333 356 3 3 5 4 4 348 344
90 113 219 208 209 228 187 169 172 150 167 232 211 96 155 161 166 170 179 187 191 195 197 198 200 199 204 205 204 210 217 217 218 219 214 227 249 273 266 283 313 310 329 327 328 322 322 322 329
166 178 215 237 224 168 181 235 181 143 232 217 203 163 154 164 172 177 188 193 196 200 200 201 203 203 205 206 207 213 220 220 218 216 223 239 255 268 274 275 288 297 295 314 315 326 320 324 322
213 242 189 219 225 144 189 154 216 190 222 215 207 157 162 175 186 190 192 199 202 203 205 206 207 208 210 213 215 220 223 226 229 233 236 248 262 269 280 282 290 288 294 309 318 323 322 320 315
187 280 247 221 203 245 218 237 224 238 246 11 135 147 176 186 195 201 202 205 206 208 209 210 210 212 214 217 221 224 227 233 239 243 246 251 262 279 279 277 279 285 291 302 311 313 314 315 313
302 277 310 263 256 258 219 258 174 253 193 144 160 180 186 190 198 199 205 207 208 211 212 213 215 217 218 221 223 227 231 240 241 245 250 258 263 272 278 276 280 286 294 300 301 307 305 307 312
319 320 333 246 214 246 171 289 233 209 154 185 197 204 199 208 198 203 208 209 212 213 214 214 216 218 220 223 225 227 233 238 243 247 251 257 261 266 276 278 280 287 290 293 295 299 300 305 313
23 49 356 291 152 223 98 275 277 209 172 207 212 218 215 221 211 214 214 215 215 216 216 218 219 220 221 221 224 227 231 237 245 247 249 254 259 263 268 273 278 286 289 292 295 299 301 304 309
10 255 236 310 203 126 157 272 268 22 186 217 213 220 221 231 226 225 222 220 219 219 221 222 221 222 222 223 225 229 236 239 244 247 249 253 259 262 267 272 279 281 285 290 294 298 302 306 312
269 307 261 249 256 204 224 260 268 266 206 239 228 224 222 227 228 222 223 223 223 222 223 225 224 224 224 224 224 228 233 238 242 245 250 255 259 261 265 270 275 277 280 285 290 293 296 302 311
276 255 268 259 252 208 239 261 269 265 216 242 237 231 229 230 232 227 226 224 223 224 224 224 224 223 220 219 220 225 231 235 240 244 249 253 255 256 261 268 273 275 277 286 288 291 296 303 314
240 297 285 283 306 196 289 270 262 249 231 215 221 227 226 227 221 222 225 223 222 223 223 224 224 223 220 220 221 224 232 242 247 250 252 252 254 257 261 266 271 273 275 277 280 283 290 300 317
277 221 260 252 322 288 320 288 299 291 236 218 228 221 216 217 222 214 211 216 220 220 221 220 221 221 220 220 221 223 230 239 242 242 244 247 253 257 260 265 270 273 273 276 278 277 275 281 292
303 218 266 318 28 284 34 290 294 289 282 227 233 219 218 211 216 215 201 209 213 218 220 219 218 219 219 220 219 222 225 231 241 244 248 249 251 257 260 266 269 273 274 275 280 279 275 271 274
230 15 338 352 54 354 319 83 269 315 282 250 231 223 219 212 209 214 201 210 215 215 215 216 218 218 219 219 221 223 228 237 247 250 250 250 251 256 262 269 272 272 272 274 275 275 274 269 266
68 342 35 51 81 343 252 156 278 233 231 288 262 225 220 208 209 215 211 213 211 213 213 214 215 218 219 219 221 225 230 236 240 245 248 252 257 262 265 269 272 272 270 270 272 273 271 271 268
71 54 324 336 6 226 184 185 254 286 268 245 282 260 226 204 198 199 190 192 200 206 210 212 214 217 218 220 222 225 231 236 241 246 249 254 259 263 268 270 270 272 272 270 269 267 268 268 267
158 156 162 272 259 286 142 238 253 219 288 268 264 265 249 211 204 200 197 197 198 204 209 210 213 217 219 220 224 227 232 236 240 244 248 253 258 265 271 271 271 270 267 267 266 267 268 267 268
167 184 206 110 31 18 254 293 297 352 344 339 301 271 244 220 196 205 194 200 202 202 208 212 214 218 220 222 225 228 231 235 238 242 246 251 255 261 266 266 265 266 266 268 270 271 275 273 273
139 157 57 6 272 276 287 280 240 325 323 325 339 296 285 267 216 200 200 203 210 212 213 213 217 220 221 223 226 229 231 234 238 242 244 246 250 252 252 252 257 261 263 263 266 271 273 275 280
128 184 90 133 162 208 306 270 218 240 310 313 312 308 289 266 255 222 209 212 213 216 215 216 217 221 223 225 227 229 232 234 238 240 242 243 244 242 240 244 250 258 261 262 265 270 271 274 279
193 190 155 141 230 238 166 267 255 245 266 357 346 345 331 308 247 260 258 220 208 217 218 219 221 223 226 227 228 230 233 234 236 237 239 238 238 235 234 238 246 252 257 260 261 265 268 272 277